owner,sensor,date,latitude,longitude,vertical_datum,direction_of_sea_water_velocity,sea_water_speed,upward_sea_water_velocity,qcFlag 
TABS,ioos:station:wmo:42046:1,2011-12-01T00:00:00Z,27.8903,-94.0367,2.0,140.6481289,6.466065264,-99999.0,'11133222,11111222,99999999' 
TABS,ioos:station:wmo:42046:1,2011-12-01T00:30:00Z,27.8903,-94.0367,2.0,138.5543067,10.37907992,-99999.0,'11111222,11111222,99999999' 
TABS,ioos:station:wmo:42046:1,2011-12-01T01:00:00Z,27.8903,-94.0367,2.0,124.2554725,12.36486959,-99999.0,'11111222,11111222,99999999' 
TABS,ioos:station:wmo:42046:1,2011-12-01T01:30:00Z,27.8903,-94.0367,2.0,143.4590753,14.2762355,-99999.0,'11111222,11111222,99999999' 
TABS,ioos:station:wmo:42046:1,2011-12-01T02:00:00Z,27.8903,-94.0367,2.0,133.9431357,12.65229228,-99999.0,'11111222,11111222,99999999' 
TABS,ioos:station:wmo:42046:1,2011-12-01T02:30:00Z,27.8903,-94.0367,2.0,135.5042971,13.65476107,-99999.0,'11111222,11111222,99999999' 
TABS,ioos:station:wmo:42046:1,2011-12-01T03:00:00Z,27.8903,-94.0367,2.0,130.2542744,13.07680771,-99999.0,'11111222,11111222,99999999' 
TABS,ioos:station:wmo:42046:1,2011-12-01T03:30:00Z,27.8903,-94.0367,2.0,129.9736078,13.96248187,-99999.0,'11111222,11111222,99999999' 
TABS,ioos:station:wmo:42046:1,2011-12-01T04:00:00Z,27.8903,-94.0367,2.0,136.4719029,12.93725241,-99999.0,'11111222,11111222,99999999' 
TABS,ioos:station:wmo:42046:1,2011-12-01T04:30:00Z,27.8903,-94.0367,2.0,123.8937057,12.48083331,-99999.0,'11111222,11111222,99999999' 
TABS,ioos:station:wmo:42046:1,2011-12-01T05:00:00Z,27.8903,-94.0367,2.0,131.0161635,10.48343932,-99999.0,'11111222,11111222,99999999' 
TABS,ioos:station:wmo:42046:1,2011-12-01T05:30:00Z,27.8903,-94.0367,2.0,123.9341448,9.762812095,-99999.0,'11133222,11111222,99999999' 
TABS,ioos:station:wmo:42046:1,2011-12-01T06:00:00Z,27.8903,-94.0367,2.0,110.1362563,11.82264353,-99999.0,'11111222,11111222,99999999' 
TABS,ioos:station:wmo:42046:1,2011-12-01T06:30:00Z,27.8903,-94.0367,2.0,114.0429294,13.00862791,-99999.0,'11111222,11111222,99999999' 
TABS,ioos:station:wmo:42046:1,2011-12-01T07:00:00Z,27.8903,-94.0367,2.0,105.7859927,11.35838897,-99999.0,'11111222,11111222,99999999' 
TABS,ioos:station:wmo:42046:1,2011-12-01T07:30:00Z,27.8903,-94.0367,2.0,114.569504,12.45798138,-99999.0,'11111222,11111222,99999999' 
TABS,ioos:station:wmo:42046:1,2011-12-01T08:00:00Z,27.8903,-94.0367,2.0,104.7566756,13.30898193,-99999.0,'11111222,11111222,99999999' 
TABS,ioos:station:wmo:42046:1,2011-12-01T08:30:00Z,27.8903,-94.0367,2.0,106.5872998,13.24101582,-99999.0,'11111222,11111222,99999999' 
TABS,ioos:station:wmo:42046:1,2011-12-01T09:00:00Z,27.8903,-94.0367,2.0,97.24997075,9.66729021,-99999.0,'11133222,11111222,99999999' 
TABS,ioos:station:wmo:42046:1,2011-12-01T09:30:00Z,27.8903,-94.0367,2.0,105.0817946,9.569623817,-99999.0,'11133222,11111222,99999999' 
TABS,ioos:station:wmo:42046:1,2011-12-01T10:00:00Z,27.8903,-94.0367,2.0,92.01275662,6.263864622,-99999.0,'11133222,11111222,99999999' 
TABS,ioos:station:wmo:42046:1,2011-12-01T10:30:00Z,27.8903,-94.0367,2.0,61.1472629,7.170076708,-99999.0,'11133222,11111222,99999999' 
TABS,ioos:station:wmo:42046:1,2011-12-01T11:00:00Z,27.8903,-94.0367,2.0,64.11527028,6.780235984,-99999.0,'11133222,11111222,99999999' 
TABS,ioos:station:wmo:42046:1,2011-12-01T11:30:00Z,27.8903,-94.0367,2.0,77.34356719,5.841951729,-99999.0,'11133222,11111222,99999999' 
TABS,ioos:station:wmo:42046:1,2011-12-01T12:00:00Z,27.8903,-94.0367,2.0,65.77587251,7.335952563,-99999.0,'11133222,11111222,99999999' 
TABS,ioos:station:wmo:42046:1,2011-12-01T12:30:00Z,27.8903,-94.0367,2.0,62.16337321,12.29245704,-99999.0,'11111222,11111222,99999999' 
TABS,ioos:station:wmo:42046:1,2011-12-01T13:00:00Z,27.8903,-94.0367,2.0,58.92459956,13.19341123,-99999.0,'11111222,11111222,99999999' 
TABS,ioos:station:wmo:42046:1,2011-12-01T13:30:00Z,27.8903,-94.0367,2.0,54.00679328,13.5955912,-99999.0,'11111222,11111222,99999999' 
TABS,ioos:station:wmo:42046:1,2011-12-01T14:00:00Z,27.8903,-94.0367,2.0,58.04167773,15.51095419,-99999.0,'11111222,11111222,99999999' 
TABS,ioos:station:wmo:42046:1,2011-12-01T14:30:00Z,27.8903,-94.0367,2.0,60.17382814,15.72265881,-99999.0,'11111222,11111222,99999999' 
TABS,ioos:station:wmo:42046:1,2011-12-01T15:00:00Z,27.8903,-94.0367,2.0,46.35365517,17.66138443,-99999.0,'11111222,11111222,99999999' 
TABS,ioos:station:wmo:42046:1,2011-12-01T15:30:00Z,27.8903,-94.0367,2.0,51.741637,17.1670411,-99999.0,'11111222,11111222,99999999' 
TABS,ioos:station:wmo:42046:1,2011-12-01T16:00:00Z,27.8903,-94.0367,2.0,54.17698102,17.73495983,-99999.0,'11111222,11111222,99999999' 
TABS,ioos:station:wmo:42046:1,2011-12-01T16:30:00Z,27.8903,-94.0367,2.0,61.16427094,19.07522215,-99999.0,'11111222,11111222,99999999' 
TABS,ioos:station:wmo:42046:1,2011-12-01T17:00:00Z,27.8903,-94.0367,2.0,45.38492094,18.95088916,-99999.0,'11111222,11111222,99999999' 
TABS,ioos:station:wmo:42046:1,2011-12-01T17:30:00Z,27.8903,-94.0367,2.0,60.45030416,19.66830191,-99999.0,'11111222,11111222,99999999' 
TABS,ioos:station:wmo:42046:1,2011-12-01T18:00:00Z,27.8903,-94.0367,2.0,53.38026497,20.62019641,-99999.0,'11111222,11111222,99999999' 
TABS,ioos:station:wmo:42046:1,2011-12-01T18:30:00Z,27.8903,-94.0367,2.0,54.30881452,21.68258748,-99999.0,'11111222,11111222,99999999' 
TABS,ioos:station:wmo:42046:1,2011-12-01T19:00:00Z,27.8903,-94.0367,2.0,54.03762078,23.36293004,-99999.0,'11111222,11111222,99999999' 
TABS,ioos:station:wmo:42046:1,2011-12-01T19:30:00Z,27.8903,-94.0367,2.0,50.2795864,23.28481265,-99999.0,'11111222,11111222,99999999' 
TABS,ioos:station:wmo:42046:1,2011-12-01T20:00:00Z,27.8903,-94.0367,2.0,50.42891862,25.03782139,-99999.0,'11111222,11111222,99999999' 
TABS,ioos:station:wmo:42046:1,2011-12-01T20:30:00Z,27.8903,-94.0367,2.0,48.62773906,26.59808264,-99999.0,'11111222,11111222,99999999' 
TABS,ioos:station:wmo:42046:1,2011-12-01T21:00:00Z,27.8903,-94.0367,2.0,49.45221374,25.59672049,-99999.0,'11111222,11111222,99999999' 
TABS,ioos:station:wmo:42046:1,2011-12-01T21:30:00Z,27.8903,-94.0367,2.0,54.21734827,27.72299046,-99999.0,'11111222,11111222,99999999' 
TABS,ioos:station:wmo:42046:1,2011-12-01T22:00:00Z,27.8903,-94.0367,2.0,54.06910004,27.09563803,-99999.0,'11111222,11111222,99999999' 
TABS,ioos:station:wmo:42046:1,2011-12-01T22:30:00Z,27.8903,-94.0367,2.0,51.7764924,26.6674427,-99999.0,'11111222,11111222,99999999' 
TABS,ioos:station:wmo:42046:1,2011-12-01T23:00:00Z,27.8903,-94.0367,2.0,52.43709288,24.96582664,-99999.0,'11111222,11111222,99999999' 
TABS,ioos:station:wmo:42046:1,2011-12-01T23:30:00Z,27.8903,-94.0367,2.0,59.41608333,23.54555797,-99999.0,'11111222,11111222,99999999' 
TABS,ioos:station:wmo:42046:1,2011-12-02T00:00:00Z,27.8903,-94.0367,2.0,43.77077362,11.53556674,-99999.0,'11111222,11111222,99999999' 
TABS,ioos:station:wmo:42046:1,2011-12-02T00:30:00Z,27.8903,-94.0367,2.0,52.71597598,24.06862896,-99999.0,'11111222,11111222,99999999' 
TABS,ioos:station:wmo:42046:1,2011-12-02T01:00:00Z,27.8903,-94.0367,2.0,57.30156766,18.75167459,-99999.0,'11111222,11111222,99999999' 
TABS,ioos:station:wmo:42046:1,2011-12-02T01:30:00Z,27.8903,-94.0367,2.0,56.80300813,11.92649571,-99999.0,'11111222,11111222,99999999' 
TABS,ioos:station:wmo:42046:1,2011-12-02T02:00:00Z,27.8903,-94.0367,2.0,65.6082814,15.44892553,-99999.0,'11111222,11111222,99999999' 
TABS,ioos:station:wmo:42046:1,2011-12-02T02:30:00Z,27.8903,-94.0367,2.0,67.08023094,13.22402737,-99999.0,'11111222,11111222,99999999' 
TABS,ioos:station:wmo:42046:1,2011-12-02T03:00:00Z,27.8903,-94.0367,2.0,69.01847272,11.03143236,-99999.0,'11111222,11111222,99999999' 
TABS,ioos:station:wmo:42046:1,2011-12-02T03:30:00Z,27.8903,-94.0367,2.0,60.4925998,11.67424944,-99999.0,'11111222,11111222,99999999' 
TABS,ioos:station:wmo:42046:1,2011-12-02T04:00:00Z,27.8903,-94.0367,2.0,70.88601363,10.13897431,-99999.0,'11111222,11111222,99999999' 
TABS,ioos:station:wmo:42046:1,2011-12-02T04:30:00Z,27.8903,-94.0367,2.0,63.8986368,10.50091901,-99999.0,'11111222,11111222,99999999' 
TABS,ioos:station:wmo:42046:1,2011-12-02T05:00:00Z,27.8903,-94.0367,2.0,60.58446995,12.94944014,-99999.0,'11111222,11111222,99999999' 
TABS,ioos:station:wmo:42046:1,2011-12-02T05:30:00Z,27.8903,-94.0367,2.0,67.02548657,12.42562272,-99999.0,'11111222,11111222,99999999' 
TABS,ioos:station:wmo:42046:1,2011-12-02T06:00:00Z,27.8903,-94.0367,2.0,57.76236094,14.11610782,-99999.0,'11111222,11111222,99999999' 
TABS,ioos:station:wmo:42046:1,2011-12-02T06:30:00Z,27.8903,-94.0367,2.0,57.78036255,10.48451239,-99999.0,'11111222,11111222,99999999' 
TABS,ioos:station:wmo:42046:1,2011-12-02T07:00:00Z,27.8903,-94.0367,2.0,63.12423879,9.06962513,-99999.0,'11133222,11111222,99999999' 
TABS,ioos:station:wmo:42046:1,2011-12-02T07:30:00Z,27.8903,-94.0367,2.0,27.65345267,9.889676436,-99999.0,'11133222,11111222,99999999' 
TABS,ioos:station:wmo:42046:1,2011-12-02T08:00:00Z,27.8903,-94.0367,2.0,61.55042644,6.255429642,-99999.0,'11133222,11111222,99999999' 
TABS,ioos:station:wmo:42046:1,2011-12-02T08:30:00Z,27.8903,-94.0367,2.0,36.50383052,8.136166173,-99999.0,'11133222,11111222,99999999' 
TABS,ioos:station:wmo:42046:1,2011-12-02T09:00:00Z,27.8903,-94.0367,2.0,18.09106309,8.952569464,-99999.0,'11133222,11111222,99999999' 
TABS,ioos:station:wmo:42046:1,2011-12-02T09:30:00Z,27.8903,-94.0367,2.0,38.86390295,8.335046491,-99999.0,'11133222,11111222,99999999' 
TABS,ioos:station:wmo:42046:1,2011-12-02T10:00:00Z,27.8903,-94.0367,2.0,38.01083101,12.95856859,-99999.0,'11111222,11111222,99999999' 
TABS,ioos:station:wmo:42046:1,2011-12-02T10:30:00Z,27.8903,-94.0367,2.0,32.61709046,8.441243984,-99999.0,'11133222,11111222,99999999' 
TABS,ioos:station:wmo:42046:1,2011-12-02T11:00:00Z,27.8903,-94.0367,2.0,28.11335359,12.41470902,-99999.0,'11111222,11111222,99999999' 
TABS,ioos:station:wmo:42046:1,2011-12-02T11:30:00Z,27.8903,-94.0367,2.0,31.78026584,13.48115722,-99999.0,'11111222,11111222,99999999' 
TABS,ioos:station:wmo:42046:1,2011-12-02T12:00:00Z,27.8903,-94.0367,2.0,29.99521993,11.36169002,-99999.0,'11111222,11111222,99999999' 
TABS,ioos:station:wmo:42046:1,2011-12-02T12:30:00Z,27.8903,-94.0367,2.0,34.32587999,15.4992774,-99999.0,'11111222,11111222,99999999' 
TABS,ioos:station:wmo:42046:1,2011-12-02T13:00:00Z,27.8903,-94.0367,2.0,29.31820013,14.15275592,-99999.0,'11111222,11111222,99999999' 
TABS,ioos:station:wmo:42046:1,2011-12-02T13:30:00Z,27.8903,-94.0367,2.0,36.69837036,12.68405692,-99999.0,'11111222,11111222,99999999' 
TABS,ioos:station:wmo:42046:1,2011-12-02T14:00:00Z,27.8903,-94.0367,2.0,42.98035465,11.83725053,-99999.0,'11111222,11111222,99999999' 
TABS,ioos:station:wmo:42046:1,2011-12-02T14:30:00Z,27.8903,-94.0367,2.0,46.03929203,12.08644282,-99999.0,'11111222,11111222,99999999' 
TABS,ioos:station:wmo:42046:1,2011-12-02T15:00:00Z,27.8903,-94.0367,2.0,42.67485608,10.28272824,-99999.0,'11111222,11111222,99999999' 
TABS,ioos:station:wmo:42046:1,2011-12-02T15:30:00Z,27.8903,-94.0367,2.0,77.89914791,6.535212315,-99999.0,'11133222,11111222,99999999' 
TABS,ioos:station:wmo:42046:1,2011-12-02T16:00:00Z,27.8903,-94.0367,2.0,55.05635803,8.746942323,-99999.0,'11133222,11111222,99999999' 
TABS,ioos:station:wmo:42046:1,2011-12-02T16:30:00Z,27.8903,-94.0367,2.0,65.01573376,9.565066649,-99999.0,'11133222,11111222,99999999' 
TABS,ioos:station:wmo:42046:1,2011-12-02T17:00:00Z,27.8903,-94.0367,2.0,80.17474593,10.89987156,-99999.0,'11111222,11111222,99999999' 
TABS,ioos:station:wmo:42046:1,2011-12-02T17:30:00Z,27.8903,-94.0367,2.0,76.82137322,11.66727046,-99999.0,'11111222,11111222,99999999' 
TABS,ioos:station:wmo:42046:1,2011-12-02T18:00:00Z,27.8903,-94.0367,2.0,69.5258955,11.46419208,-99999.0,'11111222,11111222,99999999' 
TABS,ioos:station:wmo:42046:1,2011-12-02T18:30:00Z,27.8903,-94.0367,2.0,61.77816087,10.82709564,-99999.0,'11111222,11111222,99999999' 
TABS,ioos:station:wmo:42046:1,2011-12-02T19:00:00Z,27.8903,-94.0367,2.0,58.37069997,13.72938819,-99999.0,'11111222,11111222,99999999' 
TABS,ioos:station:wmo:42046:1,2011-12-02T19:30:00Z,27.8903,-94.0367,2.0,78.40913684,11.19836595,-99999.0,'11111222,11111222,99999999' 
TABS,ioos:station:wmo:42046:1,2011-12-02T20:00:00Z,27.8903,-94.0367,2.0,85.77122738,11.12027428,-99999.0,'11111222,11111222,99999999' 
TABS,ioos:station:wmo:42046:1,2011-12-02T20:30:00Z,27.8903,-94.0367,2.0,61.38665993,15.51480905,-99999.0,'11111222,11111222,99999999' 
TABS,ioos:station:wmo:42046:1,2011-12-02T21:00:00Z,27.8903,-94.0367,2.0,74.93913875,16.81768414,-99999.0,'11111222,11111222,99999999' 
TABS,ioos:station:wmo:42046:1,2011-12-02T21:30:00Z,27.8903,-94.0367,2.0,70.93549715,17.2670785,-99999.0,'11111222,11111222,99999999' 
TABS,ioos:station:wmo:42046:1,2011-12-02T22:00:00Z,27.8903,-94.0367,2.0,67.65495269,19.56945579,-99999.0,'11111222,11111222,99999999' 
TABS,ioos:station:wmo:42046:1,2011-12-02T22:30:00Z,27.8903,-94.0367,2.0,62.26851872,15.81675061,-99999.0,'11111222,11111222,99999999' 
TABS,ioos:station:wmo:42046:1,2011-12-02T23:00:00Z,27.8903,-94.0367,2.0,64.03548013,17.49595668,-99999.0,'11111222,11111222,99999999' 
TABS,ioos:station:wmo:42046:1,2011-12-02T23:30:00Z,27.8903,-94.0367,2.0,60.14758461,21.1343157,-99999.0,'11111222,11111222,99999999' 
TABS,ioos:station:wmo:42046:1,2011-12-03T00:00:00Z,27.8903,-94.0367,2.0,58.82309542,6.451821448,-99999.0,'11133222,11111222,99999999' 
TABS,ioos:station:wmo:42046:1,2011-12-03T00:30:00Z,27.8903,-94.0367,2.0,58.04153528,10.37208272,-99999.0,'11111222,11111222,99999999' 
TABS,ioos:station:wmo:42046:1,2011-12-03T01:00:00Z,27.8903,-94.0367,2.0,75.63430478,11.80925485,-99999.0,'11111222,11111222,99999999' 
TABS,ioos:station:wmo:42046:1,2011-12-03T01:30:00Z,27.8903,-94.0367,2.0,71.33996521,12.87689404,-99999.0,'11111222,11111222,99999999' 
TABS,ioos:station:wmo:42046:1,2011-12-03T02:00:00Z,27.8903,-94.0367,2.0,69.83848758,12.06956917,-99999.0,'11111222,11111222,99999999' 
TABS,ioos:station:wmo:42046:1,2011-12-03T02:30:00Z,27.8903,-94.0367,2.0,52.72670478,12.7803169,-99999.0,'11111222,11111222,99999999' 
TABS,ioos:station:wmo:42046:1,2011-12-03T03:00:00Z,27.8903,-94.0367,2.0,73.31911184,11.98432309,-99999.0,'11111222,11111222,99999999' 
TABS,ioos:station:wmo:42046:1,2011-12-03T03:30:00Z,27.8903,-94.0367,2.0,55.29389436,9.853024916,-99999.0,'11133222,11111222,99999999' 
TABS,ioos:station:wmo:42046:1,2011-12-03T04:00:00Z,27.8903,-94.0367,2.0,69.2293917,11.56140562,-99999.0,'11111222,11111222,99999999' 
TABS,ioos:station:wmo:42046:1,2011-12-03T04:30:00Z,27.8903,-94.0367,2.0,56.22076577,10.68353874,-99999.0,'11111222,11111222,99999999' 
TABS,ioos:station:wmo:42046:1,2011-12-03T05:00:00Z,27.8903,-94.0367,2.0,57.24858466,16.93172171,-99999.0,'11111222,11111222,99999999' 
TABS,ioos:station:wmo:42046:1,2011-12-03T05:30:00Z,27.8903,-94.0367,2.0,61.85627116,16.07001245,-99999.0,'11111222,11111222,99999999' 
TABS,ioos:station:wmo:42046:1,2011-12-03T06:00:00Z,27.8903,-94.0367,2.0,57.3324626,14.76569673,-99999.0,'11111222,11111222,99999999' 
TABS,ioos:station:wmo:42046:1,2011-12-03T06:30:00Z,27.8903,-94.0367,2.0,55.98873063,17.80615624,-99999.0,'11111222,11111222,99999999' 
TABS,ioos:station:wmo:42046:1,2011-12-03T07:00:00Z,27.8903,-94.0367,2.0,56.90994373,13.77396094,-99999.0,'11111222,11111222,99999999' 
TABS,ioos:station:wmo:42046:1,2011-12-03T07:30:00Z,27.8903,-94.0367,2.0,56.49299504,14.76342101,-99999.0,'11111222,11111222,99999999' 
TABS,ioos:station:wmo:42046:1,2011-12-03T08:00:00Z,27.8903,-94.0367,2.0,53.96411609,14.70355739,-99999.0,'11111222,11111222,99999999' 
TABS,ioos:station:wmo:42046:1,2011-12-03T08:30:00Z,27.8903,-94.0367,2.0,48.87735262,16.20863042,-99999.0,'11111222,11111222,99999999' 
TABS,ioos:station:wmo:42046:1,2011-12-03T09:00:00Z,27.8903,-94.0367,2.0,29.81204582,14.84448719,-99999.0,'11111222,11111222,99999999' 
TABS,ioos:station:wmo:42046:1,2011-12-03T09:30:00Z,27.8903,-94.0367,2.0,49.27752945,18.96084914,-99999.0,'11111222,11111222,99999999' 
TABS,ioos:station:wmo:42046:1,2011-12-03T10:00:00Z,27.8903,-94.0367,2.0,46.26211831,17.97901555,-99999.0,'11111222,11111222,99999999' 
TABS,ioos:station:wmo:42046:1,2011-12-03T10:30:00Z,27.8903,-94.0367,2.0,29.24022781,18.30203541,-99999.0,'11111222,11111222,99999999' 
TABS,ioos:station:wmo:42046:1,2011-12-03T11:00:00Z,27.8903,-94.0367,2.0,37.37328555,19.12673783,-99999.0,'11111222,11111222,99999999' 
TABS,ioos:station:wmo:42046:1,2011-12-03T11:30:00Z,27.8903,-94.0367,2.0,29.29610047,21.21307144,-99999.0,'11111222,11111222,99999999' 
TABS,ioos:station:wmo:42046:1,2011-12-03T12:00:00Z,27.8903,-94.0367,2.0,37.02321843,18.70006684,-99999.0,'11111222,11111222,99999999' 
TABS,ioos:station:wmo:42046:1,2011-12-03T12:30:00Z,27.8903,-94.0367,2.0,28.29001768,21.39544811,-99999.0,'11111222,11111222,99999999' 
TABS,ioos:station:wmo:42046:1,2011-12-03T13:00:00Z,27.8903,-94.0367,2.0,38.58744809,24.69109151,-99999.0,'11111222,11111222,99999999' 
TABS,ioos:station:wmo:42046:1,2011-12-03T13:30:00Z,27.8903,-94.0367,2.0,33.88218964,23.17550431,-99999.0,'11111222,11111222,99999999' 
TABS,ioos:station:wmo:42046:1,2011-12-03T14:00:00Z,27.8903,-94.0367,2.0,41.42557622,28.12685905,-99999.0,'11111222,11111222,99999999' 
TABS,ioos:station:wmo:42046:1,2011-12-03T14:30:00Z,27.8903,-94.0367,2.0,41.01740785,27.48798283,-99999.0,'11111222,11111222,99999999' 
TABS,ioos:station:wmo:42046:1,2011-12-03T15:00:00Z,27.8903,-94.0367,2.0,48.60338544,25.31496988,-99999.0,'11111222,11111222,99999999' 
TABS,ioos:station:wmo:42046:1,2011-12-03T15:30:00Z,27.8903,-94.0367,2.0,45.93392354,24.73080872,-99999.0,'11111222,11111222,99999999' 
TABS,ioos:station:wmo:42046:1,2011-12-03T16:00:00Z,27.8903,-94.0367,2.0,41.93988588,24.23883042,-99999.0,'11111222,11111222,99999999' 
TABS,ioos:station:wmo:42046:1,2011-12-03T16:30:00Z,27.8903,-94.0367,2.0,49.92772551,26.67165162,-99999.0,'11111222,11111222,99999999' 
TABS,ioos:station:wmo:42046:1,2011-12-03T17:00:00Z,27.8903,-94.0367,2.0,40.73275293,22.71159396,-99999.0,'11111222,11111222,99999999' 
TABS,ioos:station:wmo:42046:1,2011-12-03T17:30:00Z,27.8903,-94.0367,2.0,43.0327078,25.95197488,-99999.0,'11111222,11111222,99999999' 
TABS,ioos:station:wmo:42046:1,2011-12-03T18:00:00Z,27.8903,-94.0367,2.0,47.16549372,23.01862072,-99999.0,'11111222,11111222,99999999' 
TABS,ioos:station:wmo:42046:1,2011-12-03T18:30:00Z,27.8903,-94.0367,2.0,49.43515895,22.22019127,-99999.0,'11111222,11111222,99999999' 
TABS,ioos:station:wmo:42046:1,2011-12-03T19:00:00Z,27.8903,-94.0367,2.0,46.15549103,25.24884552,-99999.0,'11111222,11111222,99999999' 
TABS,ioos:station:wmo:42046:1,2011-12-03T19:30:00Z,27.8903,-94.0367,2.0,41.87247202,26.69769278,-99999.0,'11111222,11111222,99999999' 
TABS,ioos:station:wmo:42046:1,2011-12-03T20:00:00Z,27.8903,-94.0367,2.0,50.29467365,24.90449156,-99999.0,'11111222,11111222,99999999' 
TABS,ioos:station:wmo:42046:1,2011-12-03T20:30:00Z,27.8903,-94.0367,2.0,56.55670788,23.18945666,-99999.0,'11111222,11111222,99999999' 
TABS,ioos:station:wmo:42046:1,2011-12-03T21:00:00Z,27.8903,-94.0367,2.0,55.96688657,23.15637493,-99999.0,'11111222,11111222,99999999' 
TABS,ioos:station:wmo:42046:1,2011-12-03T21:30:00Z,27.8903,-94.0367,2.0,50.42192105,23.87266428,-99999.0,'11111222,11111222,99999999' 
TABS,ioos:station:wmo:42046:1,2011-12-03T22:00:00Z,27.8903,-94.0367,2.0,60.27763074,22.16624912,-99999.0,'11111222,11111222,99999999' 
TABS,ioos:station:wmo:42046:1,2011-12-03T22:30:00Z,27.8903,-94.0367,2.0,53.12540676,23.96400008,-99999.0,'11111222,11111222,99999999' 
TABS,ioos:station:wmo:42046:1,2011-12-03T23:00:00Z,27.8903,-94.0367,2.0,50.30101935,22.73170693,-99999.0,'11111222,11111222,99999999' 
TABS,ioos:station:wmo:42046:1,2011-12-03T23:30:00Z,27.8903,-94.0367,2.0,59.60615745,21.89973744,-99999.0,'11111222,11111222,99999999' 
TABS,ioos:station:wmo:42046:1,2011-12-04T00:00:00Z,27.8903,-94.0367,2.0,33.90268539,10.4700382,-99999.0,'11111222,11111222,99999999' 
TABS,ioos:station:wmo:42046:1,2011-12-04T00:30:00Z,27.8903,-94.0367,2.0,52.46818851,13.32888968,-99999.0,'11111222,11111222,99999999' 
TABS,ioos:station:wmo:42046:1,2011-12-04T01:00:00Z,27.8903,-94.0367,2.0,53.75453454,14.86688266,-99999.0,'11111222,11111222,99999999' 
TABS,ioos:station:wmo:42046:1,2011-12-04T01:30:00Z,27.8903,-94.0367,2.0,49.17618599,17.86652736,-99999.0,'11111222,11111222,99999999' 
TABS,ioos:station:wmo:42046:1,2011-12-04T02:00:00Z,27.8903,-94.0367,2.0,45.22261147,21.8497643,-99999.0,'11111222,11111222,99999999' 
TABS,ioos:station:wmo:42046:1,2011-12-04T02:30:00Z,27.8903,-94.0367,2.0,60.10918584,17.03622611,-99999.0,'11111222,11111222,99999999' 
TABS,ioos:station:wmo:42046:1,2011-12-04T03:00:00Z,27.8903,-94.0367,2.0,57.51192725,25.91574811,-99999.0,'11111222,11111222,99999999' 
TABS,ioos:station:wmo:42046:1,2011-12-04T03:30:00Z,27.8903,-94.0367,2.0,56.96792277,17.39099767,-99999.0,'11111222,11111222,99999999' 
TABS,ioos:station:wmo:42046:1,2011-12-04T04:00:00Z,27.8903,-94.0367,2.0,63.57060386,17.00758066,-99999.0,'11111222,11111222,99999999' 
TABS,ioos:station:wmo:42046:1,2011-12-04T04:30:00Z,27.8903,-94.0367,2.0,61.05663382,15.51826343,-99999.0,'11111222,11111222,99999999' 
TABS,ioos:station:wmo:42046:1,2011-12-04T05:00:00Z,27.8903,-94.0367,2.0,52.8153805,16.74425275,-99999.0,'11111222,11111222,99999999' 
TABS,ioos:station:wmo:42046:1,2011-12-04T05:30:00Z,27.8903,-94.0367,2.0,53.18724961,18.07400896,-99999.0,'11111222,11111222,99999999' 
TABS,ioos:station:wmo:42046:1,2011-12-04T06:00:00Z,27.8903,-94.0367,2.0,78.35274831,22.98324825,-99999.0,'11111222,11111222,99999999' 
TABS,ioos:station:wmo:42046:1,2011-12-04T06:30:00Z,27.8903,-94.0367,2.0,64.51177243,19.75244036,-99999.0,'11111222,11111222,99999999' 
TABS,ioos:station:wmo:42046:1,2011-12-04T07:00:00Z,27.8903,-94.0367,2.0,68.80724029,17.48234538,-99999.0,'11111222,11111222,99999999' 
TABS,ioos:station:wmo:42046:1,2011-12-04T07:30:00Z,27.8903,-94.0367,2.0,59.57948926,22.61310461,-99999.0,'11111222,11111222,99999999' 
TABS,ioos:station:wmo:42046:1,2011-12-04T08:00:00Z,27.8903,-94.0367,2.0,51.50904645,14.84594221,-99999.0,'11111222,11111222,99999999' 
TABS,ioos:station:wmo:42046:1,2011-12-04T08:30:00Z,27.8903,-94.0367,2.0,59.43786068,17.12969936,-99999.0,'11111222,11111222,99999999' 
TABS,ioos:station:wmo:42046:1,2011-12-04T09:00:00Z,27.8903,-94.0367,2.0,41.53058926,18.92858685,-99999.0,'11111222,11111222,99999999' 
TABS,ioos:station:wmo:42046:1,2011-12-04T09:30:00Z,27.8903,-94.0367,2.0,43.75227859,14.28694509,-99999.0,'11111222,11111222,99999999' 
TABS,ioos:station:wmo:42046:1,2011-12-04T10:00:00Z,27.8903,-94.0367,2.0,48.34982692,17.06335547,-99999.0,'11111222,11111222,99999999' 
TABS,ioos:station:wmo:42046:1,2011-12-04T10:30:00Z,27.8903,-94.0367,2.0,48.79358712,20.94797365,-99999.0,'11111222,11111222,99999999' 
TABS,ioos:station:wmo:42046:1,2011-12-04T11:00:00Z,27.8903,-94.0367,2.0,48.93247651,19.59055385,-99999.0,'11111222,11111222,99999999' 
TABS,ioos:station:wmo:42046:1,2011-12-04T11:30:00Z,27.8903,-94.0367,2.0,47.30713851,17.74154728,-99999.0,'11111222,11111222,99999999' 
TABS,ioos:station:wmo:42046:1,2011-12-04T12:00:00Z,27.8903,-94.0367,2.0,47.81158314,16.29013505,-99999.0,'11111222,11111222,99999999' 
TABS,ioos:station:wmo:42046:1,2011-12-04T12:30:00Z,27.8903,-94.0367,2.0,41.26969126,18.04116404,-99999.0,'11111222,11111222,99999999' 
TABS,ioos:station:wmo:42046:1,2011-12-04T13:00:00Z,27.8903,-94.0367,2.0,35.67431173,21.46867485,-99999.0,'11111222,11111222,99999999' 
TABS,ioos:station:wmo:42046:1,2011-12-04T13:30:00Z,27.8903,-94.0367,2.0,42.39754911,23.04716902,-99999.0,'11111222,11111222,99999999' 
TABS,ioos:station:wmo:42046:1,2011-12-04T14:00:00Z,27.8903,-94.0367,2.0,39.04992977,25.2382646,-99999.0,'11111222,11111222,99999999' 
TABS,ioos:station:wmo:42046:1,2011-12-04T14:30:00Z,27.8903,-94.0367,2.0,46.48776163,25.33003158,-99999.0,'11111222,11111222,99999999' 
TABS,ioos:station:wmo:42046:1,2011-12-04T15:00:00Z,27.8903,-94.0367,2.0,38.22305053,22.53028184,-99999.0,'11111222,11111222,99999999' 
TABS,ioos:station:wmo:42046:1,2011-12-04T15:30:00Z,27.8903,-94.0367,2.0,40.11717949,22.84467772,-99999.0,'11111222,11111222,99999999' 